TimeEST,TemperatureF,Dew PointF,Humidity,Sea Level PressureIn,VisibilityMPH,Wind Direction,Wind SpeedMPH,Gust SpeedMPH,PrecipitationIn,Events,Conditions,WindDirDegrees,DateUTC
1:54 AM,30.0,17.1,59,30.16,10.0,NW,13.8,19.6,N/A,,Overcast,320,2014-02-06 06:54:00
2:54 AM,30.0,16.0,56,30.18,10.0,NNW,15.0,23.0,N/A,,Mostly Cloudy,340,2014-02-06 07:54:00
3:54 AM,28.9,17.1,61,30.20,10.0,NNW,10.4,18.4,N/A,,Mostly Cloudy,330,2014-02-06 08:54:00
4:54 AM,28.0,16.0,61,30.24,10.0,NNW,15.0,21.9,N/A,,Overcast,330,2014-02-06 09:54:00
5:54 AM,27.0,12.9,56,30.26,10.0,NNW,9.2,16.1,N/A,,Overcast,340,2014-02-06 10:54:00
6:54 AM,26.1,12.0,55,30.29,10.0,NNW,12.7,18.4,N/A,,Overcast,330,2014-02-06 11:54:00
7:54 AM,26.1,12.0,55,30.33,10.0,NNW,9.2,-,N/A,,Mostly Cloudy,340,2014-02-06 12:54:00
8:54 AM,27.0,12.0,53,30.35,10.0,North,11.5,18.4,N/A,,Mostly Cloudy,350,2014-02-06 13:54:00
9:54 AM,28.9,10.9,47,30.35,10.0,NNW,11.5,18.4,N/A,,Mostly Cloudy,330,2014-02-06 14:54:00
10:54 AM,30.0,12.9,49,30.35,10.0,NNW,10.4,20.7,N/A,,Mostly Cloudy,330,2014-02-06 15:54:00
11:54 AM,30.9,12.9,47,30.33,10.0,NW,6.9,-,N/A,,Mostly Cloudy,320,2014-02-06 16:54:00
12:54 PM,30.9,14.0,50,30.31,10.0,West,9.2,-,N/A,,Mostly Cloudy,280,2014-02-06 17:54:00
1:54 PM,33.1,12.9,43,30.29,10.0,WNW,4.6,16.1,N/A,,Mostly Cloudy,300,2014-02-06 18:54:00
2:54 PM,34.0,12.9,42,30.29,10.0,WNW,6.9,-,N/A,,Mostly Cloudy,290,2014-02-06 19:54:00
3:54 PM,33.1,12.9,43,30.28,10.0,NNW,5.8,-,N/A,,Mostly Cloudy,330,2014-02-06 20:54:00
4:54 PM,33.1,14.0,46,30.29,10.0,WNW,4.6,-,N/A,,Scattered Clouds,300,2014-02-06 21:54:00
5:54 PM,30.9,14.0,50,30.29,10.0,NW,3.5,-,N/A,,Scattered Clouds,310,2014-02-06 22:54:00
6:54 PM,30.0,15.1,54,30.30,10.0,Calm,Calm,-,N/A,,Mostly Cloudy,0,2014-02-06 23:54:00
7:54 PM,28.0,17.1,63,30.30,10.0,Calm,Calm,-,N/A,,Mostly Cloudy,0,2014-02-07 00:54:00
8:54 PM,28.0,18.0,66,30.30,10.0,Calm,Calm,-,N/A,,Overcast,0,2014-02-07 01:54:00
9:54 PM,28.9,18.0,64,30.32,10.0,Calm,Calm,-,N/A,,Overcast,0,2014-02-07 02:54:00
10:54 PM,28.9,19.0,67,30.32,10.0,SSW,3.5,-,N/A,,Overcast,200,2014-02-07 03:54:00
11:54 PM,28.9,19.9,69,30.30,10.0,Calm,Calm,-,N/A,,Overcast,0,2014-02-07 04:54:00